Tracking 28565 objects as of 3-Mar-2024
HD Live streaming from Space Station
objects crossing your sky now

BEIDOU 2 G8

Track BEIDOU 2 G8 now!
BEIDOU 2 G8 is classified as:


NORAD ID: 44231
Int'l Code: 2019-027A
Perigee: 35,777.8 km
Apogee: 35,806.8 km
Inclination: 1.7 °
Period: 1,436.0 minutes
Semi major axis: 42163 km
RCS: Unknown
Launch date: May 17, 2019
Source: People's Republic of China (PRC)
Launch site: Xichang Space Center, China (XSC)
Your satellite tracking list
Your tracking list is empty




NASA's NSSDC Master Catalog

Two Line Element Set (TLE):
1 44231U 19027A   24063.58892721 -.00000240  00000-0  00000-0 0  9997
2 44231   1.6851  73.1056 0003437 180.8003 264.3443  1.00276853 17709
Source of the keplerian elements: AFSPC